Theta_e
324 324 327 329 326 317 313 316 318 322 326 322 322 329 331 330 335 334 327 325 326 324 321 319 318 317 316 316 315 314 314 313 313 312 312 312 311 311 312 311 312 312 310 308 308 308 308 308 308 307 307 307 307 307 308 307 307 307 306 306 307 306 306 306 306 306 305 305 305 305 305 305 305 305 305 305 305 305 305 305 305 304 303 303 302 301 301
328 328 332 333 330 325 324 326 326 331 337 334 330 331 331 332 333 329 325 325 325 322 320 318 317 316 316 315 314 314 313 313 312 311 311 311 311 311 310 310 310 309 307 307 307 307 307 307 308 307 307 307 306 307 307 306 306 306 305 306 306 305 305 305 305 306 305 305 305 304 304 304 304 304 304 304 304 304 304 304 304 304 304 303 302 301 300
330 330 331 329 327 326 326 327 329 330 332 331 329 328 327 328 328 325 324 324 322 320 318 317 317 316 315 315 314 313 313 312 311 311 311 310 310 310 309 309 309 307 306 306 306 307 307 307 307 307 307 306 305 306 306 306 305 305 305 305 305 304 304 304 304 305 305 305 304 304 304 304 304 303 303 303 303 303 302 302 303 304 304 303 302 301 300
330 329 331 329 329 328 326 327 329 330 331 329 328 327 326 325 324 323 323 323 321 319 317 316 316 315 315 314 313 313 313 312 311 310 309 309 309 309 308 308 308 307 305 306 306 306 306 306 306 306 306 305 305 305 305 305 305 304 304 304 304 304 304 304 303 304 304 304 303 303 304 304 304 303 303 303 303 302 302 301 301 302 303 302 302 301 300
331 330 331 331 335 338 333 327 325 326 327 326 325 326 325 323 322 322 323 322 319 317 316 316 316 315 315 314 313 313 312 311 310 309 308 309 308 308 308 307 307 306 305 306 306 306 306 306 306 306 305 305 305 304 304 304 304 304 304 304 304 303 303 303 303 303 303 303 302 302 302 303 303 302 303 303 303 302 301 301 301 301 301 301 301 300 299
332 331 330 332 337 337 330 323 322 323 323 322 321 321 321 321 322 321 320 318 316 315 315 315 315 315 314 313 313 312 311 310 309 308 308 308 307 307 307 306 305 305 305 306 306 305 306 306 306 305 305 305 304 304 303 303 303 303 304 304 303 303 303 303 302 302 302 302 302 301 300 301 301 301 301 302 302 302 301 300 300 300 300 300 300 299 299
331 328 329 332 332 328 323 320 320 320 318 317 317 316 315 318 319 317 317 316 315 314 314 314 314 312 311 311 311 310 310 309 308 307 308 308 307 307 307 306 304 305 305 305 305 305 306 306 305 305 304 304 304 303 303 303 303 303 303 303 303 302 302 302 302 302 301 302 301 300 300 299 300 299 299 300 301 302 301 300 300 300 300 300 300 299 298
328 326 326 328 325 322 321 320 318 318 318 317 318 317 315 314 315 315 315 314 313 313 313 312 311 310 309 309 309 309 309 308 308 308 308 308 307 306 305 305 304 305 305 305 305 305 304 305 305 304 304 303 303 303 303 303 302 302 303 303 303 302 302 302 301 301 301 301 301 300 299 299 298 298 299 299 299 300 301 300 300 300 300 300 299 299 298
325 324 323 322 321 321 322 322 320 320 322 320 319 319 316 313 313 314 313 313 313 313 312 310 309 308 308 309 309 309 309 309 308 307 307 306 305 304 304 304 304 304 304 304 304 304 304 304 304 304 303 303 303 302 302 302 302 302 302 302 302 302 301 301 301 300 300 300 300 300 299 299 298 298 298 298 298 299 300 300 299 299 300 300 299 299 298
322 322 321 321 322 323 323 322 322 320 319 317 316 317 316 314 312 312 312 312 312 311 310 309 308 309 309 309 309 309 308 308 307 307 306 305 305 304 304 304 304 304 304 304 304 304 304 303 303 303 303 302 302 302 302 301 302 301 301 302 302 302 301 301 300 300 300 300 300 300 299 299 298 298 297 297 297 298 299 299 298 298 299 300 299 299 298
324 324 324 323 324 323 322 322 321 318 317 316 319 321 318 313 312 312 312 311 310 309 309 308 308 310 310 309 309 308 308 307 307 306 305 304 304 304 304 304 304 303 303 303 303 303 303 303 303 303 302 302 302 302 301 301 301 301 301 301 301 301 301 301 300 300 300 299 299 299 299 299 298 298 297 297 297 297 297 297 296 296 298 299 299 299 298
326 325 324 322 322 322 321 321 321 319 317 318 324 329 322 313 311 311 311 310 310 308 308 308 309 310 309 308 308 307 307 306 306 305 304 303 303 303 303 303 303 303 303 303 303 303 303 303 303 302 302 301 301 301 301 301 301 301 301 301 301 301 301 301 301 300 300 299 299 299 299 299 298 298 297 297 297 297 297 297 296 296 297 299 299 298 298
324 324 323 322 322 321 320 321 322 321 320 321 326 329 321 312 310 311 309 309 309 307 307 308 309 309 307 307 307 307 306 306 305 304 303 303 303 303 303 303 303 303 303 303 303 303 303 303 302 302 302 301 301 301 301 301 301 300 300 300 301 300 300 301 301 300 300 299 299 299 299 299 299 298 297 297 297 297 296 296 296 295 297 298 298 296 295
323 323 322 322 322 320 319 320 320 320 322 324 324 320 314 310 310 309 309 309 308 307 307 308 308 307 306 306 307 307 306 305 304 303 303 303 303 303 303 303 302 303 303 303 303 302 302 302 302 302 301 301 301 301 301 301 300 300 300 300 300 300 300 300 300 301 300 299 299 299 299 299 299 298 297 297 297 297 296 296 295 295 295 296 297 295 294
323 323 323 323 323 321 319 320 319 318 322 321 315 311 310 310 309 308 308 308 307 307 307 307 306 306 306 306 306 306 305 304 302 302 302 302 302 302 303 303 302 302 302 302 302 302 302 302 302 301 301 301 300 300 301 300 300 300 300 300 300 300 300 299 300 300 300 300 299 299 299 299 299 298 297 296 297 297 296 296 295 295 295 295 296 295 294
323 325 323 321 321 319 319 320 319 317 317 314 310 309 310 309 308 307 307 307 307 307 306 306 306 305 306 306 306 305 304 303 301 301 302 302 302 302 302 302 302 302 302 302 301 301 302 302 301 301 301 301 300 300 300 300 300 300 300 299 299 300 300 299 299 300 300 300 300 299 299 299 299 298 297 296 296 296 296 295 295 295 294 294 295 295 294
319 322 320 317 317 316 316 317 315 314 313 311 310 310 309 308 308 308 307 307 306 306 305 305 306 305 305 306 305 305 304 302 300 300 301 301 302 302 302 302 302 301 301 300 300 300 301 301 301 301 301 301 301 300 300 300 300 300 300 299 299 299 299 299 299 299 300 300 300 300 299 299 299 299 298 297 296 296 296 295 294 294 294 294 294 294 294
316 317 317 315 315 316 315 314 313 312 311 311 310 310 309 309 309 308 307 306 306 305 305 305 305 305 305 305 305 304 303 301 300 300 300 301 301 301 301 301 300 300 300 300 300 300 300 300 301 301 301 301 301 301 300 300 300 300 300 299 299 299 299 299 299 299 299 300 300 300 300 299 299 299 298 297 296 296 296 295 294 294 294 293 293 293 293
317 317 316 315 315 315 314 313 313 312 311 311 310 310 310 309 308 307 307 306 305 305 305 305 305 305 305 305 304 303 301 300 299 300 300 301 301 300 300 300 300 300 300 300 299 299 299 300 300 301 301 301 301 300 300 300 300 300 300 299 299 299 299 299 300 299 299 299 300 300 300 300 299 299 298 297 297 296 296 295 294 294 294 293 293 293 293
317 317 315 314 314 313 312 313 312 312 311 311 310 310 309 308 308 307 306 306 305 305 305 305 305 305 305 304 303 302 300 299 299 300 301 301 300 300 300 300 300 300 300 300 299 299 299 299 300 301 301 301 301 300 300 300 300 300 300 300 299 299 299 299 299 299 299 299 300 300 300 300 300 299 298 298 297 296 296 295 295 294 294 293 293 293 293
316 315 314 313 314 313 313 312 312 311 310 309 309 309 308 308 307 307 306 306 306 305 305 305 305 305 305 303 301 300 300 299 300 301 301 300 300 300 300 300 300 300 300 300 300 300 300 300 300 300 301 301 301 300 300 300 300 300 299 299 299 299 299 299 300 299 299 299 299 299 299 299 299 299 298 298 297 297 296 296 295 295 294 294 293 293 293
315 315 314 313 314 314 313 312 311 310 309 309 308 308 308 307 307 307 307 306 305 305 305 305 305 304 303 301 300 300 299 299 300 301 300 300 300 300 300 300 300 300 300 300 301 301 300 300 300 301 301 301 301 300 300 300 300 300 300 299 299 299 299 299 300 300 299 299 299 298 298 298 298 298 298 298 298 297 297 296 296 295 295 294 293 293 293
315 314 313 313 314 313 312 311 310 309 309 308 308 308 307 307 307 306 306 306 306 305 305 304 304 303 301 300 299 299 299 300 301 300 300 300 300 300 300 300 300 299 300 301 301 301 300 300 300 301 301 301 301 300 300 300 300 300 300 300 300 299 299 299 300 300 299 299 299 298 298 298 298 298 298 298 298 298 297 297 296 296 295 294 293 293 293
313 312 312 313 312 311 311 310 310 309 308 308 308 307 307 307 306 306 306 306 305 306 305 304 303 302 300 300 299 299 299 300 300 300 300 300 300 300 300 300 299 300 300 301 301 301 301 300 300 301 301 301 301 300 300 300 300 300 300 300 300 299 298 298 300 300 299 299 299 298 298 298 298 298 297 297 297 297 297 297 296 296 296 295 294 294 294
312 312 311 311 311 311 310 309 309 309 308 308 308 307 307 307 306 306 305 305 305 305 304 303 302 301 300 299 299 299 299 300 300 300 300 300 300 300 300 299 299 300 300 301 301 301 301 300 300 301 301 301 301 300 300 300 300 300 300 300 299 298 296 297 299 300 299 299 298 298 298 298 298 298 297 297 297 297 296 296 296 296 296 295 294 294 294
311 311 310 310 310 310 310 309 309 309 308 307 308 308 307 307 306 306 305 305 304 304 303 301 301 300 300 300 300 300 300 300 300 301 300 300 300 300 299 299 299 299 300 300 300 300 301 300 300 301 301 301 301 301 300 300 299 299 300 300 299 298 297 297 299 300 299 299 298 298 298 298 298 297 297 297 297 296 296 296 295 296 296 295 295 294 294
310 309 309 309 310 310 310 309 309 308 307 307 307 307 307 307 306 305 305 304 303 303 302 301 300 300 300 300 300 300 300 300 300 300 300 300 300 300 299 299 299 299 300 300 300 300 301 301 301 301 301 301 301 301 301 300 299 299 300 299 299 298 297 297 299 300 299 298 298 298 298 298 298 297 297 297 297 297 296 296 295 295 295 295 295 294 294
309 309 309 309 309 309 309 308 308 307 307 307 307 306 306 306 305 305 304 303 302 302 302 301 301 300 300 300 300 299 300 300 300 300 300 300 300 300 299 299 299 299 299 300 300 300 300 301 301 301 301 301 300 300 300 300 300 299 299 299 298 298 297 298 299 299 298 298 298 298 298 298 298 297 297 297 297 297 296 296 296 295 295 295 295 295 294
309 309 309 309 308 308 308 307 307 307 307 307 306 306 306 305 305 305 304 303 302 302 301 301 300 300 299 299 299 299 299 299 300 300 299 300 299 299 299 299 300 300 299 299 300 300 300 300 300 300 300 300 299 299 299 299 299 300 299 299 299 298 298 298 299 299 298 298 298 298 298 298 298 297 297 297 297 297 296 296 296 296 295 295 295 295 294
309 309 309 308 308 307 307 307 307 307 307 307 306 305 305 305 305 304 304 302 301 301 301 300 299 299 299 299 299 299 299 300 300 300 300 300 299 299 299 300 300 300 300 300 300 300 300 300 300 300 300 299 299 298 298 298 299 299 298 298 298 299 298 298 298 298 297 297 298 298 297 297 297 297 297 297 297 297 296 296 296 296 296 296 295 295 294
309 309 309 308 308 307 307 307 307 307 307 306 306 305 305 305 304 304 304 303 301 301 301 300 299 299 299 299 299 299 300 300 300 300 300 300 299 299 300 300 300 300 300 300 300 300 300 299 299 299 299 299 298 298 297 297 298 298 297 296 297 298 298 297 297 297 297 297 297 297 297 297 297 297 297 297 297 297 297 296 296 296 296 296 296 295 294
309 309 309 308 308 307 307 307 307 307 307 306 306 306 305 304 303 303 304 303 302 301 301 300 299 299 299 299 300 300 301 300 300 300 300 300 300 300 300 300 300 300 299 299 300 300 300 299 299 299 299 299 298 297 298 298 298 298 297 296 297 297 297 296 296 296 296 297 297 297 297 297 296 297 297 297 297 297 297 296 296 296 296 296 296 295 295
308 308 308 308 307 307 307 307 307 307 306 306 305 304 303 302 302 302 302 302 302 301 301 301 300 300 299 300 300 301 301 300 300 300 300 300 300 300 300 300 300 300 299 299 300 299 299 299 299 299 299 299 298 298 298 297 297 298 298 297 297 297 297 296 296 295 296 296 296 296 296 296 296 296 297 297 297 297 297 296 296 296 296 296 296 296 295
308 308 308 307 307 307 307 307 307 306 306 305 304 302 302 302 301 302 302 302 302 301 302 301 301 300 300 301 301 301 300 299 299 299 300 300 300 300 300 300 300 300 300 300 300 299 299 300 300 299 299 299 299 299 298 297 297 297 297 297 297 298 297 296 296 295 295 296 296 296 296 296 296 297 297 297 297 297 296 296 296 296 296 296 296 296 296
307 307 307 306 306 306 306 306 306 306 305 305 304 302 301 301 302 302 302 302 302 302 302 302 302 301 301 301 301 300 300 299 299 299 300 300 299 300 300 300 300 300 301 300 299 299 299 300 300 299 299 299 299 300 299 297 296 296 296 297 298 298 297 297 296 295 295 296 296 296 296 296 296 296 297 297 296 296 296 296 296 296 296 296 296 296 295
306 307 307 306 305 305 305 304 304 303 303 303 302 302 301 301 302 302 302 302 302 302 302 302 302 301 301 300 300 300 300 300 299 299 299 299 298 298 299 300 300 300 301 301 299 299 300 300 300 299 298 298 298 299 299 298 296 295 295 297 298 298 297 297 296 295 295 295 296 296 295 295 296 296 296 296 296 296 296 296 296 296 296 296 296 296 295
306 306 306 305 304 304 304 303 303 303 302 302 302 302 302 302 302 302 302 302 302 302 302 302 302 301 300 300 300 300 300 300 300 299 299 298 297 297 298 299 300 300 300 300 300 300 300 300 299 298 297 297 298 298 299 298 297 296 295 297 298 298 297 296 295 295 295 295 296 296 295 295 296 296 296 296 296 296 296 296 296 296 296 296 296 296 296
306 305 305 305 304 304 303 303 303 303 303 302 302 302 302 302 302 302 302 302 302 302 302 302 302 301 300 300 300 300 300 299 299 299 298 297 297 297 297 298 299 299 300 300 300 300 300 300 299 298 297 297 298 298 298 298 297 296 296 297 298 297 296 295 295 295 295 296 296 296 295 295 295 295 295 295 295 295 295 295 296 296 296 296 296 296 296
306 305 304 304 304 303 303 303 303 303 303 302 302 302 302 302 302 302 302 302 302 303 303 301 301 300 299 298 298 298 299 299 298 297 297 297 297 297 297 297 298 299 300 301 301 301 300 300 299 298 297 297 298 298 298 298 297 296 297 298 298 296 295 295 295 295 296 296 296 295 295 295 295 295 295 295 295 295 295 295 295 295 295 296 296 296 296
305 304 303 304 303 302 302 303 303 303 303 303 302 302 302 302 302 302 302 302 303 303 303 301 299 299 298 298 298 298 298 298 298 297 297 297 297 297 297 297 298 299 300 301 301 300 300 300 299 298 297 298 298 298 298 298 297 296 297 298 297 296 296 296 295 296 296 296 295 295 295 294 295 295 295 295 295 295 295 295 295 294 295 295 295 296 296
304 304 304 303 303 302 302 303 302 302 303 303 303 302 302 302 302 302 303 303 303 303 302 301 300 299 299 299 299 298 298 298 298 298 298 297 297 297 298 298 298 299 300 301 300 300 300 300 299 298 298 298 298 298 298 298 297 296 296 297 296 296 296 296 296 296 296 296 295 295 295 295 295 295 295 295 295 295 294 295 294 294 294 295 295 295 295
304 304 303 303 303 303 303 303 302 302 303 303 303 303 303 302 302 302 302 303 303 303 302 301 301 301 300 300 299 298 298 298 298 298 298 298 297 298 298 298 298 299 300 301 300 300 299 299 299 298 298 298 298 298 298 298 296 295 296 297 296 296 296 296 296 296 296 295 295 295 295 295 295 295 295 295 295 294 294 294 294 294 294 295 295 295 295
304 303 303 302 302 303 303 303 303 302 302 303 303 303 303 303 302 302 302 303 303 302 302 301 301 301 300 300 299 298 298 298 298 298 298 298 298 298 297 297 298 299 300 301 300 300 299 299 299 298 298 298 298 298 298 297 296 295 296 297 296 296 296 296 296 296 296 296 295 295 295 295 295 295 295 295 295 294 294 294 294 294 294 294 294 294 294
303 303 303 303 303 303 303 303 303 302 302 303 303 302 303 303 302 302 302 302 302 302 302 302 301 301 300 300 300 299 299 299 298 298 298 298 298 298 298 298 299 300 301 301 300 300 300 299 299 298 298 298 298 297 297 297 296 296 296 296 296 296 296 296 296 296 296 296 296 295 295 295 295 295 295 295 295 294 294 294 294 293 294 294 293 293 293
303 303 303 303 303 303 303 303 303 302 303 303 303 303 303 302 302 302 302 302 302 302 302 302 302 302 301 301 300 300 300 300 299 299 299 298 298 299 299 299 300 301 301 301 301 300 300 299 299 298 297 297 297 297 297 297 297 296 296 296 296 296 296 296 296 296 296 296 296 296 295 295 295 295 295 295 295 294 294 294 294 294 293 293 293 293 293
303 303 303 303 303 303 303 303 303 303 303 303 302 303 303 302 302 302 303 302 302 302 302 302 302 302 302 302 302 301 301 301 300 300 300 300 300 301 301 300 301 302 302 301 301 300 299 299 299 298 298 298 297 297 297 297 297 296 295 295 296 296 296 296 296 296 296 296 296 295 295 295 295 295 295 295 294 294 294 294 294 294 293 293 293 293 293
303 303 303 303 303 303 303 303 303 303 303 302 302 302 302 302 302 303 303 302 302 302 302 302 302 302 302 302 302 302 302 301 301 301 301 301 302 302 302 301 301 302 302 301 300 299 299 298 298 298 298 298 297 297 297 297 297 296 296 296 296 296 296 296 296 296 296 296 296 295 295 295 295 295 295 294 294 294 294 294 294 293 293 293 293 293 293
303 303 303 304 303 304 304 303 303 303 303 302 302 302 303 302 302 302 303 303 302 302 302 302 302 302 302 302 302 301 301 301 301 301 301 301 302 302 302 302 302 302 302 300 299 299 299 298 298 298 298 298 297 297 297 297 296 296 296 296 296 296 296 296 296 296 296 296 295 295 295 295 295 295 295 294 294 294 294 294 294 294 293 293 293 293 293
303 303 304 304 304 304 304 303 303 302 303 303 303 303 303 302 302 302 302 302 302 302 302 302 302 302 302 302 302 302 301 301 301 301 301 302 302 302 302 302 302 302 301 300 299 299 298 298 298 298 297 297 297 297 297 297 296 296 296 296 296 296 296 296 296 296 296 296 295 295 295 295 295 294 294 294 294 294 294 294 293 293 293 293 293 293 293
304 304 304 304 304 304 304 303 302 302 303 303 303 303 303 302 302 302 302 303 303 302 302 302 302 302 302 302 302 302 302 301 301 301 301 302 302 302 302 301 301 301 300 300 299 299 298 298 298 297 297 297 297 297 297 297 296 296 296 296 296 296 296 296 296 296 296 295 295 295 295 295 294 294 294 294 294 294 294 293 293 293 293 293 293 293 293
304 304 304 304 304 304 304 304 303 303 303 303 303 303 303 302 302 302 302 303 303 302 302 302 302 302 302 302 302 302 302 301 301 301 301 302 302 302 301 301 301 300 300 299 299 299 298 298 298 297 297 297 297 297 297 297 296 296 296 296 296 296 296 296 296 296 295 295 295 295 294 294 294 294 294 293 293 293 293 293 293 293 293 293 293 293 293
304 304 304 304 304 304 304 304 304 304 303 303 303 303 303 302 302 302 302 302 302 302 302 302 302 302 302 302 302 302 302 302 301 301 301 301 301 301 301 301 300 300 299 299 299 299 298 298 298 298 297 297 297 297 297 297 296 296 296 296 296 296 296 296 296 295 295 295 295 294 294 294 294 294 294 293 293 293 293 293 293 293 293 293 293 293 293
Wind_Speed
4 6 7 9 5 3 7 6 5 5 4 7 7 7 10 10 7 6 10 14 16 14 14 16 15 14 14 13 12 12 11 11 11 11 11 10 9 8 7 6 6 5 5 8 11 12 13 14 15 17 18 18 18 18 21 22 21 20 19 20 21 23 23 23 24 24 25 25 25 26 27 27 27 27 27 27 27 28 29 28 28 31 33 33 34 36 36
6 8 9 10 11 9 7 7 6 6 8 6 4 6 8 10 12 14 16 13 11 10 12 13 13 12 12 12 11 12 12 13 12 12 11 9 8 8 7 7 6 6 7 9 12 14 15 15 15 15 15 18 20 19 19 21 22 21 22 24 25 27 27 26 24 22 22 24 25 25 27 27 27 27 28 28 28 29 30 30 28 30 32 34 35 36 35
5 7 10 11 12 12 12 12 11 10 14 15 13 11 13 15 15 17 18 14 8 5 8 12 12 11 12 12 12 12 12 12 13 12 11 10 9 8 7 7 6 6 8 10 12 14 15 16 18 17 16 19 24 23 19 20 23 23 24 26 27 28 27 27 27 25 22 23 24 24 25 27 27 27 27 27 29 30 31 32 30 29 31 32 34 36 36
3 4 8 8 7 10 12 12 12 11 10 10 9 7 8 13 17 19 16 11 7 6 8 12 12 12 13 13 13 12 11 11 13 12 11 10 9 8 8 7 6 6 7 9 11 12 14 16 19 20 21 21 22 22 21 21 23 23 24 26 27 27 26 26 28 28 26 25 27 26 25 26 28 27 26 25 28 30 31 33 32 30 30 30 32 34 35
1 2 5 3 3 6 7 6 6 6 5 10 11 9 8 11 16 15 10 9 10 11 11 13 12 11 12 11 10 10 11 12 12 12 12 10 9 8 8 7 6 7 8 10 12 13 14 16 18 19 20 20 20 21 22 22 21 21 22 24 26 26 26 26 27 29 28 27 29 31 30 29 30 30 29 25 25 28 31 32 32 31 30 30 31 33 34
1 3 6 5 3 4 1 5 4 1 5 13 14 9 8 7 8 6 6 11 14 13 13 14 12 10 9 9 8 9 10 11 12 12 11 10 9 9 8 7 7 9 10 12 14 15 15 16 18 18 18 19 19 20 21 21 20 19 20 23 26 26 25 26 27 28 28 27 28 31 31 31 31 33 33 29 25 25 29 32 32 31 30 30 30 32 33
2 4 6 3 2 1 2 3 6 7 11 18 19 13 8 7 10 13 14 14 15 13 12 12 11 10 10 10 10 10 10 10 11 11 9 8 9 9 7 7 8 11 13 14 15 16 16 16 17 18 19 19 19 19 19 20 20 19 19 22 25 26 26 25 25 27 28 27 28 29 30 31 32 32 34 33 29 25 27 31 31 30 29 28 29 30 32
3 3 3 2 2 1 1 3 7 7 7 11 15 13 8 5 10 16 16 13 13 13 12 11 11 11 12 11 9 9 10 10 10 9 7 7 9 9 9 10 11 13 14 15 16 16 16 17 17 18 19 18 18 19 19 19 18 18 18 20 23 26 26 25 26 27 28 27 27 27 28 30 32 32 32 33 32 27 25 28 30 30 28 27 27 29 31
3 4 2 1 0 2 3 4 4 3 2 2 5 7 5 4 7 13 16 14 13 13 13 12 12 12 13 10 6 6 9 10 9 9 9 12 13 14 15 15 15 15 14 15 17 17 17 17 18 18 17 16 17 19 19 17 17 20 20 20 22 25 26 25 26 27 27 27 26 26 27 28 31 32 31 31 32 30 26 27 30 30 26 25 26 28 30
3 4 3 2 1 3 5 5 2 1 4 5 7 7 6 5 6 10 14 15 14 14 14 14 13 12 11 7 4 5 8 9 9 10 13 17 19 18 17 17 16 16 16 16 17 17 18 18 17 16 16 17 17 18 18 18 18 20 21 20 21 24 24 24 24 24 25 26 25 25 26 26 27 31 31 30 30 30 28 27 30 29 24 22 25 28 30
4 4 2 2 2 3 5 7 3 4 7 8 8 6 3 6 9 10 13 15 15 14 15 14 13 12 9 6 5 5 8 10 9 9 11 17 20 19 17 16 16 16 17 17 18 18 18 17 15 15 17 18 16 15 15 17 18 18 19 19 21 22 22 22 22 22 23 24 24 22 22 23 25 27 29 28 28 29 28 28 30 30 26 23 24 27 28
4 4 2 1 1 3 4 7 5 5 5 4 6 2 4 9 12 11 13 15 14 14 14 12 10 8 8 8 7 7 10 11 10 11 14 17 19 19 17 16 17 16 17 18 19 18 18 16 14 15 16 16 16 16 16 17 19 19 17 17 19 21 20 20 20 20 20 21 22 20 19 21 24 25 26 26 26 27 27 27 29 31 28 24 25 27 27
5 5 3 1 1 2 3 6 6 5 3 4 2 3 6 12 14 11 12 13 13 13 12 8 5 3 6 9 9 9 11 10 11 16 19 19 19 18 17 17 17 17 17 18 20 19 18 15 14 14 14 14 16 17 17 18 19 17 16 16 18 21 20 18 17 18 19 19 20 20 18 18 22 24 24 24 24 25 25 26 28 29 28 25 26 28 29
4 4 3 2 0 2 2 4 4 3 4 1 3 3 7 14 15 12 12 12 12 12 10 6 5 7 9 10 9 9 10 10 11 15 18 18 18 17 17 18 18 18 17 18 18 19 17 14 11 11 14 15 16 16 16 18 18 17 18 18 19 20 20 18 14 14 16 18 19 20 19 18 19 22 23 23 23 23 23 24 26 27 26 24 24 27 29
3 3 3 2 2 3 4 3 3 2 2 4 4 7 10 12 13 12 12 11 11 11 8 7 10 13 12 10 9 10 11 10 11 14 16 16 17 18 20 20 19 18 18 17 17 18 16 13 9 9 13 16 15 15 16 17 16 15 17 18 17 17 17 18 15 11 12 16 19 18 18 17 17 20 23 23 22 22 23 24 25 26 26 25 24 25 28
2 3 2 2 2 2 2 3 3 3 4 5 8 11 11 10 11 11 10 10 11 10 9 10 13 13 12 11 11 12 10 9 12 16 17 16 15 17 21 22 20 19 18 16 16 16 14 12 9 8 11 14 14 14 15 15 15 15 16 15 15 14 14 15 16 13 10 12 16 16 17 17 16 17 21 23 22 22 22 23 24 25 26 25 24 25 27
2 4 3 3 4 4 4 5 6 8 9 8 8 11 11 10 10 9 9 11 12 11 12 14 13 11 11 12 12 11 9 10 13 16 17 16 16 19 22 23 20 19 18 17 16 15 13 12 9 8 10 12 14 14 14 14 13 15 15 14 14 17 17 16 17 17 13 11 13 15 17 16 15 16 18 21 22 21 21 22 24 24 25 25 24 24 25
5 6 4 5 7 7 7 8 8 10 11 9 9 10 10 9 9 9 9 12 13 12 14 13 11 10 12 12 11 10 9 10 13 16 16 18 22 24 24 22 20 18 17 16 15 14 12 11 11 9 9 12 15 15 14 14 14 12 12 13 13 15 18 18 17 18 18 13 11 13 16 15 14 15 16 18 20 21 20 21 22 23 24 25 25 24 25
4 4 4 6 9 8 8 9 9 10 11 9 8 8 8 8 11 11 12 13 13 13 13 13 12 12 12 11 10 9 8 10 13 16 18 19 22 24 22 21 20 18 17 15 14 14 12 10 11 11 9 12 16 14 11 12 14 14 13 14 14 14 15 18 17 16 18 16 12 11 14 15 13 13 14 16 18 19 19 19 21 22 24 25 26 25 25
4 5 6 8 10 9 8 9 8 8 10 9 9 9 9 11 12 13 14 14 13 11 11 12 14 13 11 10 11 10 9 11 13 15 17 19 21 22 21 21 19 17 16 15 14 14 13 10 10 9 7 10 14 13 11 11 12 14 15 14 14 14 14 15 16 14 15 18 16 11 12 14 13 11 12 14 15 17 17 16 18 20 22 24 24 24 25
6 6 8 10 10 8 7 8 8 8 9 11 12 11 11 12 13 14 14 14 13 12 13 12 13 12 10 11 12 10 9 11 14 16 19 20 21 21 21 20 19 17 16 15 14 15 14 12 10 7 6 10 13 13 13 12 11 11 12 11 12 12 12 13 14 13 13 16 17 14 13 14 13 12 12 12 13 14 14 14 16 18 20 21 23 24 25
4 5 7 8 8 6 6 8 10 11 12 13 13 12 11 12 13 13 13 13 13 16 17 15 12 10 10 13 14 12 11 14 17 19 21 22 23 23 22 19 17 16 15 14 14 15 14 12 10 7 5 9 12 11 10 10 10 10 11 10 10 11 12 13 12 12 12 14 16 17 16 15 14 13 13 12 11 12 13 13 14 16 18 19 21 24 26
6 7 8 7 6 6 7 9 12 12 12 13 13 13 12 11 12 12 12 13 14 14 15 16 14 11 12 16 16 13 14 18 21 21 22 22 22 21 20 18 16 15 14 14 14 15 14 11 9 6 4 7 11 11 9 9 9 8 8 9 10 10 12 14 13 12 12 12 14 16 17 16 16 16 16 14 11 11 12 14 13 13 15 17 19 22 25
8 9 8 7 8 8 9 11 12 11 11 12 12 13 12 11 12 13 12 13 14 12 11 14 18 17 16 19 20 17 17 21 23 22 22 22 21 20 19 18 17 16 15 14 14 15 14 11 9 6 5 7 10 10 8 6 7 6 6 8 10 10 11 13 13 12 12 12 13 14 16 17 17 17 19 18 15 11 12 14 14 13 13 14 17 21 25
9 8 8 9 10 9 9 10 10 10 12 13 11 12 13 13 15 17 14 13 15 15 12 13 18 20 21 22 23 21 20 22 23 24 23 22 21 20 18 18 18 16 15 14 13 13 13 11 9 7 4 6 9 9 7 5 7 7 7 9 11 12 12 11 11 11 12 12 12 12 14 16 16 16 18 19 18 14 13 15 16 14 12 12 15 20 25
10 11 12 12 10 9 8 9 8 8 12 13 11 10 14 17 19 20 18 16 16 18 17 16 19 23 25 25 23 22 21 22 24 24 23 22 21 20 18 19 18 15 13 13 13 13 12 11 10 8 6 5 8 9 7 6 8 8 8 10 10 12 11 9 8 9 11 10 11 11 12 14 15 15 16 17 17 14 13 15 17 16 13 11 15 20 24
11 13 14 13 10 8 7 9 9 9 12 14 13 12 16 20 20 18 18 17 19 21 23 23 23 24 25 24 23 23 23 23 22 21 21 22 21 19 19 20 18 15 14 13 13 14 13 12 10 9 7 5 5 8 7 7 9 9 9 10 11 12 10 8 7 8 10 9 10 10 10 11 13 15 14 14 15 13 12 14 16 16 13 12 14 19 23
9 10 11 11 11 9 9 10 11 11 12 15 16 15 16 17 16 13 12 14 18 21 23 25 25 23 22 23 24 24 22 21 20 19 20 20 19 17 19 19 18 16 15 13 12 15 14 12 10 8 6 5 4 6 5 6 8 9 9 11 13 14 12 8 6 7 8 7 8 8 8 9 11 13 12 12 13 13 12 13 14 15 12 10 12 17 21
7 7 8 8 9 11 11 12 11 11 11 13 15 15 15 13 11 9 8 11 16 17 18 22 25 24 23 24 24 22 19 17 19 20 20 20 19 17 16 16 15 14 14 11 11 14 15 13 11 8 6 5 5 4 4 5 7 7 7 9 11 12 11 9 5 5 7 5 4 6 8 8 9 11 11 11 12 12 11 13 15 14 10 9 12 17 20
7 7 8 9 10 12 12 11 10 10 10 10 11 12 12 11 10 9 9 12 15 15 16 20 24 24 24 24 23 20 18 18 21 23 21 19 18 16 16 16 14 13 13 11 10 13 15 13 11 8 6 6 5 4 3 4 6 6 6 7 8 7 8 9 8 8 10 7 2 5 8 9 10 11 11 11 11 11 10 12 14 12 9 8 12 16 18
9 10 11 11 12 13 11 10 10 9 9 9 10 10 10 10 10 10 9 9 11 14 18 21 23 22 23 23 22 20 20 22 24 23 20 19 17 16 16 15 14 14 15 13 10 11 14 13 10 7 6 6 5 5 4 4 6 7 6 7 8 6 7 9 10 11 12 9 4 6 8 9 9 10 11 10 9 10 10 10 11 11 10 8 10 13 14
12 13 13 12 11 12 11 9 9 9 10 10 10 9 8 9 11 11 9 8 12 18 21 21 21 22 23 23 21 21 23 25 24 22 20 18 16 15 13 12 13 15 16 14 11 9 11 13 11 7 6 6 5 5 4 2 4 6 7 7 6 6 6 8 10 11 12 10 8 7 7 7 8 9 9 8 7 8 9 9 9 10 9 8 9 11 12
13 12 13 12 11 12 12 10 9 10 10 9 9 9 10 13 14 12 11 13 17 20 21 20 22 24 24 22 21 23 24 24 22 21 20 17 14 11 9 9 12 15 16 14 11 9 9 12 11 7 6 6 5 4 4 2 2 4 7 7 4 5 7 8 9 10 11 10 8 5 4 5 7 7 7 7 7 7 7 7 9 9 7 7 9 11 10
11 10 11 12 11 11 12 11 10 9 9 9 10 10 12 16 17 15 16 17 17 17 19 21 22 25 25 22 22 24 24 21 19 19 20 17 13 10 8 8 10 12 13 12 11 10 10 10 9 7 7 6 3 2 2 3 2 1 3 3 2 5 7 7 8 9 9 9 9 6 4 4 5 6 6 5 6 8 7 6 7 7 5 6 9 10 9
11 9 11 13 13 13 13 11 9 9 8 8 9 10 14 19 19 17 19 20 17 18 22 22 20 21 24 23 23 25 25 23 22 21 21 19 16 12 10 8 7 9 12 12 11 12 13 12 9 9 9 6 4 5 3 2 3 1 1 1 2 5 7 7 7 7 8 9 10 9 8 6 4 4 5 4 5 7 8 7 6 6 6 6 8 8 7
13 9 9 12 15 16 16 13 12 11 11 10 11 12 17 21 20 19 22 22 19 20 25 23 18 20 25 25 25 25 25 25 25 23 21 19 16 14 13 10 8 9 11 13 13 14 16 16 11 9 9 8 6 6 6 1 4 4 0 1 2 6 6 5 6 6 7 7 8 9 11 11 5 2 2 3 4 7 9 7 5 6 6 6 7 6 6
16 12 10 11 13 15 15 16 16 14 14 15 16 17 19 21 20 21 25 25 21 20 24 24 21 23 27 28 27 26 25 25 23 20 18 17 15 16 16 13 11 10 10 13 15 17 18 17 12 7 8 10 9 7 7 4 3 5 1 3 1 6 6 4 5 6 7 7 7 8 11 13 9 5 5 6 5 5 7 8 7 7 7 6 6 4 5
17 17 16 16 15 15 16 17 18 17 17 18 18 20 23 24 22 23 27 26 22 20 23 25 25 26 27 27 26 25 25 23 20 18 18 16 15 16 16 15 14 12 11 14 18 20 20 19 13 7 8 11 11 9 8 5 2 4 1 3 1 6 6 5 5 6 7 8 8 8 10 12 12 11 12 11 8 6 7 9 10 10 9 9 7 3 3
13 15 17 17 16 17 18 19 19 19 18 17 17 21 25 25 22 22 25 26 23 22 25 26 26 25 24 24 23 23 23 22 20 19 19 17 16 16 16 16 16 13 12 14 21 24 22 19 14 8 8 11 10 10 10 5 2 2 4 2 2 4 4 5 5 5 5 6 8 10 10 10 11 12 12 12 11 10 10 12 13 13 12 10 7 4 5
8 12 15 14 15 17 18 17 17 18 19 18 19 22 24 24 22 20 22 23 23 25 27 27 26 24 22 22 22 22 22 22 21 20 19 17 16 15 15 16 16 12 9 15 23 23 19 17 12 9 11 11 9 11 12 7 2 4 5 4 2 0 2 2 2 4 3 4 6 7 8 9 11 11 11 11 11 11 11 12 14 14 13 10 9 8 8
10 15 16 14 15 17 17 16 18 19 19 21 24 25 24 25 23 19 18 21 25 28 29 29 27 24 23 23 22 23 23 23 21 20 19 19 19 16 15 17 17 13 11 16 19 17 16 16 12 10 12 11 9 13 14 8 3 4 6 5 2 3 3 0 4 6 3 2 4 5 6 8 9 9 9 10 11 11 11 11 12 13 13 10 9 9 9
13 17 17 14 15 18 17 18 20 19 18 22 26 24 23 26 26 20 16 19 24 28 30 30 28 25 25 24 23 23 24 24 23 21 20 21 23 21 19 20 18 14 13 16 19 18 17 16 12 11 11 10 11 15 15 7 2 5 7 5 3 3 3 2 2 4 2 1 2 3 3 4 5 5 5 5 7 8 8 9 9 11 12 10 9 9 10
16 19 16 14 17 19 18 19 20 19 17 22 27 25 23 28 30 24 17 18 24 27 28 28 28 27 27 25 23 24 24 24 24 24 23 24 25 24 22 19 16 14 16 19 22 21 18 15 13 11 11 11 13 16 14 7 3 5 8 7 5 5 5 5 2 3 2 0 1 1 1 1 3 2 1 1 4 5 5 5 7 9 10 9 10 11 11
19 20 18 17 19 20 19 20 21 19 16 20 27 27 25 27 30 26 21 21 24 24 22 22 24 26 26 25 24 24 24 25 25 25 23 22 21 22 22 20 17 16 18 22 23 22 18 14 13 12 12 13 15 16 14 9 4 4 7 7 5 5 5 5 3 4 4 3 5 7 6 5 2 2 3 4 3 2 2 3 5 7 6 6 7 9 10
20 21 20 19 20 21 20 20 20 20 19 21 25 26 26 26 26 25 23 25 26 24 22 22 22 23 25 27 27 27 27 28 29 28 24 20 19 21 24 24 21 18 18 22 23 20 16 14 14 14 15 16 17 16 15 11 6 5 8 9 8 7 8 6 5 5 7 7 7 6 5 4 3 4 5 6 5 2 1 3 4 5 4 3 5 7 8
20 22 22 21 21 22 22 21 20 21 22 21 19 21 25 26 23 20 23 28 30 29 28 27 26 24 24 24 24 23 23 25 29 31 30 26 21 20 22 25 25 23 23 24 22 18 16 16 16 16 17 19 20 18 15 12 8 7 10 11 10 9 10 9 8 8 7 4 1 3 4 4 5 6 8 7 5 3 2 2 0 1 1 1 4 7 7
21 21 21 21 22 23 24 23 22 21 20 16 14 17 24 27 24 20 20 25 29 31 31 28 26 25 24 22 21 20 18 18 20 25 30 31 27 22 24 28 30 29 27 24 22 20 19 19 18 16 16 19 22 21 17 12 9 9 10 12 11 12 12 10 7 4 2 2 3 4 6 6 6 7 9 8 5 4 6 4 2 1 2 2 3 5 4
21 21 20 21 23 23 24 24 22 19 16 16 16 20 25 28 27 25 22 20 23 29 31 29 27 26 25 23 24 24 22 19 16 16 21 28 30 27 25 28 31 31 28 24 21 20 20 19 17 15 16 19 21 20 17 13 12 11 12 13 13 12 9 6 5 3 2 2 5 7 6 5 6 7 9 8 6 4 6 6 5 5 5 4 2 1 2
22 22 20 21 22 22 22 21 19 16 16 17 18 20 24 26 26 25 25 22 20 22 25 26 26 26 23 20 21 24 24 22 18 14 13 18 24 25 23 25 29 31 29 26 23 21 20 18 16 16 17 19 20 18 15 14 13 13 13 13 12 11 7 6 5 1 3 5 6 4 3 4 5 6 7 9 8 7 6 6 7 7 6 4 1 1 1
21 21 19 19 20 21 20 19 17 18 20 21 19 20 23 24 22 21 23 24 22 22 22 22 23 24 23 20 20 21 22 21 19 17 15 16 20 22 22 25 28 30 29 27 23 20 18 17 16 17 18 19 18 16 14 14 13 13 13 13 11 9 8 7 4 4 5 5 3 2 2 4 5 4 5 7 7 6 5 6 5 5 4 3 2 2 1
20 19 19 19 21 22 22 21 20 21 24 26 25 23 24 24 24 24 25 24 23 24 24 21 20 22 26 25 22 21 20 20 19 19 17 16 18 20 22 25 28 28 26 23 20 18 17 17 17 17 18 19 17 16 15 15 15 15 16 14 12 9 8 6 5 6 5 4 3 3 4 5 6 8 8 8 7 6 6 6 4 3 2 2 2 1 0
21 21 20 20 21 22 22 23 23 23 24 26 27 27 25 25 25 25 25 24 24 25 24 20 18 20 24 25 22 19 18 18 19 17 14 14 18 22 24 26 28 27 24 20 18 16 16 17 18 18 19 19 18 17 17 17 17 17 18 16 13 10 8 6 5 5 5 6 6 6 7 7 8 9 10 8 7 5 4 2 1 1 1 1 1 1 2
Wind_Direction
9 42 33 15 20 196 185 175 223 247 235 229 211 151 153 156 130 148 168 147 138 146 149 143 142 140 139 140 138 134 131 127 123 117 113 110 105 101 97 93 89 84 72 49 41 55 76 78 78 82 78 70 64 64 69 67 61 56 51 49 53 54 51 51 53 55 51 48 48 47 43 40 37 34 31 29 27 25 24 24 24 26 27 26 24 23 22
25 39 52 48 52 58 61 48 32 58 75 79 91 105 119 115 111 129 137 127 119 130 138 137 135 134 135 133 130 132 132 130 126 123 119 115 110 107 102 94 89 84 75 61 47 50 57 55 60 77 82 67 56 58 70 70 62 56 52 52 54 52 47 44 44 47 49 48 49 48 46 43 40 38 36 34 32 29 26 24 22 23 25 25 25 23 20
39 45 63 68 74 75 60 36 27 51 71 74 79 91 97 97 102 114 117 112 104 114 128 129 130 132 132 133 135 137 135 133 129 125 122 121 118 114 109 101 93 83 76 68 55 50 53 52 56 65 71 64 59 59 65 68 64 59 57 57 56 51 48 44 39 39 41 42 43 44 43 41 39 37 37 37 37 35 31 28 25 24 24 25 24 22 21
13 29 69 73 78 74 58 38 22 27 55 81 88 85 96 114 121 120 121 127 137 146 135 127 130 135 135 138 140 136 134 132 127 122 121 120 117 112 108 102 95 86 79 77 68 57 54 57 60 63 66 66 62 58 59 65 66 63 61 61 59 54 49 46 41 39 40 41 41 39 37 35 34 32 33 37 39 37 34 32 30 27 25 25 24 21 21
306 353 59 47 44 61 42 5 349 356 60 89 79 58 67 110 128 133 145 156 148 144 140 134 135 138 136 139 138 133 131 126 118 117 119 117 113 109 104 101 99 93 84 83 80 68 61 64 66 67 69 68 65 62 61 63 64 64 67 68 64 58 52 48 44 41 41 44 44 41 38 35 33 29 28 32 39 38 35 33 32 30 28 27 25 23 22
191 344 20 21 48 80 6 314 324 333 105 97 88 74 70 91 111 113 120 134 137 139 142 139 137 134 127 122 115 115 120 118 113 114 116 116 113 108 103 102 100 94 85 81 82 74 67 69 71 71 72 71 69 68 66 64 60 60 69 73 68 62 56 50 47 44 43 46 47 45 42 39 35 31 28 28 33 38 37 33 32 31 29 27 27 26 25
113 19 28 58 128 169 287 6 60 89 104 100 93 80 65 85 107 107 110 126 136 137 135 131 123 115 106 98 96 101 106 107 110 114 117 117 113 106 104 106 103 96 87 81 81 77 71 74 77 75 73 72 71 70 69 69 63 59 69 78 74 67 61 55 50 46 45 48 49 47 46 43 39 35 31 28 27 31 36 36 33 31 29 27 26 26 25
102 73 70 141 190 259 276 98 102 112 114 102 91 73 55 75 111 116 121 129 133 132 128 122 116 108 98 87 84 95 100 100 107 115 119 116 115 117 119 114 106 100 94 90 88 84 77 75 78 79 78 75 73 70 69 69 65 60 67 80 78 70 65 60 54 50 48 49 50 48 47 46 42 37 33 30 26 25 32 36 33 30 29 27 24 23 23
95 107 106 85 5 232 187 161 159 173 197 154 108 94 88 101 116 122 128 134 137 134 127 121 117 109 100 90 79 87 95 99 106 112 113 113 116 121 121 114 106 99 98 99 99 95 86 76 74 78 81 78 75 73 67 64 65 60 61 75 81 74 68 64 58 54 52 51 50 48 48 49 46 40 35 32 28 26 28 31 29 25 26 28 25 21 21
99 105 105 109 170 222 198 201 233 109 112 119 110 101 107 134 143 139 138 140 142 135 128 127 123 114 107 108 119 115 104 106 115 119 117 116 118 120 120 118 113 106 101 99 99 98 94 86 79 76 75 74 75 75 68 64 68 67 63 72 81 76 71 68 63 59 56 53 51 50 51 52 48 43 39 35 32 31 30 29 25 21 22 28 26 22 20
118 118 116 141 183 249 207 193 178 111 130 127 98 79 112 156 158 155 146 143 143 140 137 136 134 130 129 139 161 143 121 126 139 136 121 117 118 118 118 117 116 114 109 102 96 93 90 87 84 78 77 76 72 72 73 68 66 66 66 73 81 78 72 72 69 63 58 53 50 51 55 55 48 43 42 40 37 36 34 31 25 21 22 27 27 22 19
128 118 88 108 219 268 200 169 153 153 161 115 81 87 197 166 157 157 150 146 145 143 140 141 143 146 148 154 162 151 140 145 147 128 116 117 120 122 127 127 120 116 113 107 101 95 88 85 84 81 83 81 69 63 69 69 65 61 58 67 80 80 74 74 71 62 57 54 49 48 57 58 50 45 44 42 40 39 38 34 29 27 28 30 28 22 17
120 114 102 111 260 266 172 160 175 172 116 64 88 206 187 153 149 152 149 144 142 141 140 138 132 121 130 143 150 147 142 139 128 120 121 125 131 139 145 137 121 113 110 107 105 101 94 91 89 83 82 81 74 69 67 68 68 59 46 58 81 81 73 72 70 62 58 58 53 50 55 59 52 46 44 43 41 40 39 36 34 33 33 32 27 21 18
117 108 103 100 356 277 196 164 172 148 110 117 222 190 137 139 144 146 144 140 140 142 140 127 118 125 135 142 142 134 129 125 124 129 130 132 139 145 140 128 119 114 110 106 104 103 98 93 89 85 82 78 75 74 71 70 72 60 45 57 80 81 68 64 68 67 62 60 58 57 56 56 51 46 46 47 45 42 40 37 35 33 32 29 26 22 19
106 87 97 130 169 216 200 157 138 145 176 191 160 116 116 132 138 138 141 143 144 145 141 130 135 141 144 143 133 125 127 130 130 127 125 128 137 136 128 123 119 113 106 101 101 102 100 96 87 80 85 84 76 73 72 70 71 66 56 58 70 74 65 58 60 69 67 61 62 60 54 53 51 46 46 47 47 45 43 39 36 33 30 27 25 20 17
133 127 153 181 167 172 169 149 143 134 136 143 135 126 129 137 139 142 147 148 147 145 140 138 140 142 143 139 132 131 136 136 127 125 131 142 145 135 128 125 119 114 110 105 102 100 100 101 88 67 80 89 82 76 77 73 68 71 67 58 54 56 57 55 55 59 64 67 65 56 49 52 53 46 44 46 48 48 45 42 39 35 31 27 24 19 14
108 126 146 139 103 84 82 102 115 111 105 111 121 126 131 141 147 150 147 143 143 142 140 140 141 142 140 136 136 140 142 139 137 140 148 149 136 123 121 120 118 118 116 111 109 108 106 105 94 69 71 83 81 76 79 79 74 73 71 61 47 41 41 45 50 47 47 63 67 51 45 52 53 44 42 44 46 48 48 46 43 38 33 29 24 18 13
87 66 68 91 91 83 80 88 99 105 105 110 117 121 130 140 141 138 135 136 139 141 142 142 140 140 141 140 142 145 139 133 134 134 132 125 118 115 115 116 116 116 113 111 111 110 109 111 105 83 65 74 80 74 69 70 69 71 76 74 59 42 35 38 45 41 37 48 62 48 40 49 53 42 39 42 46 48 48 49 47 42 36 31 25 19 15
103 70 75 92 93 96 96 92 93 101 109 117 121 122 127 127 123 124 128 132 137 142 143 143 140 142 147 147 143 139 131 127 128 125 122 121 120 121 123 124 125 122 118 116 113 107 102 102 103 94 77 78 83 77 66 65 59 56 69 78 71 57 43 37 41 40 31 31 42 42 34 40 48 45 38 39 44 47 47 48 48 44 38 33 28 20 15
94 106 116 104 96 102 106 102 103 109 112 113 108 107 112 113 114 121 129 134 140 142 142 142 143 148 154 149 139 134 131 131 129 126 125 125 124 125 126 127 126 123 118 116 115 113 107 98 97 99 89 84 87 86 87 84 65 52 59 64 59 57 49 37 40 46 32 22 26 36 32 31 37 41 38 37 42 46 46 44 45 44 40 36 31 25 18
96 109 123 116 104 101 104 108 115 118 113 111 109 109 112 114 117 125 131 136 140 140 142 147 150 151 150 139 132 133 132 130 129 125 121 117 115 115 115 116 118 118 118 118 117 114 111 106 104 103 82 77 86 93 93 89 80 68 64 53 41 42 39 31 38 51 40 21 22 35 40 36 35 33 32 35 39 42 42 41 42 43 40 36 33 30 27
137 149 143 132 121 119 121 119 118 118 117 117 118 120 121 123 128 133 133 132 134 139 147 155 153 143 139 136 133 132 129 127 127 124 118 112 110 109 110 112 115 116 117 119 117 113 111 110 112 111 82 74 85 93 88 80 81 85 78 64 51 41 30 25 34 48 44 30 27 33 37 39 39 33 28 28 30 33 35 35 37 40 38 34 32 31 30
166 157 139 124 116 121 124 119 117 119 122 124 126 130 131 132 134 135 135 136 138 144 154 156 147 137 138 139 134 128 126 128 128 124 121 119 118 119 121 122 122 122 121 119 116 115 114 115 118 114 73 66 84 93 85 70 69 74 76 72 65 48 29 27 37 46 44 40 38 35 32 35 39 36 30 25 22 26 30 28 29 33 34 32 33 32 29
137 137 129 117 115 120 122 119 118 123 126 126 130 135 137 138 139 139 141 146 149 153 153 148 145 144 141 136 131 127 129 132 131 130 130 131 130 130 133 133 131 127 124 119 116 117 117 117 121 116 70 56 73 84 84 71 57 53 72 87 77 54 32 32 43 47 42 41 44 39 36 38 37 33 31 30 29 32 36 30 25 25 27 30 33 32 27
132 129 123 116 113 113 114 114 117 124 128 128 132 139 142 143 144 146 149 155 156 153 146 143 146 143 133 128 129 131 134 136 138 140 141 139 138 139 139 136 130 125 124 122 119 121 122 118 114 112 88 60 64 72 79 69 46 52 91 105 82 53 37 43 52 46 36 42 50 46 40 40 36 32 33 34 33 36 42 38 30 25 26 31 33 30 25
119 117 112 107 105 109 115 119 123 128 130 130 134 140 143 145 148 153 157 159 155 148 140 135 135 132 130 132 135 138 140 142 144 146 143 140 141 144 139 131 128 128 130 130 126 125 126 123 117 109 99 78 58 55 62 53 37 50 96 104 71 47 42 55 61 39 25 40 58 53 43 41 38 36 36 33 30 33 41 40 34 29 30 35 33 27 22
111 118 117 115 118 127 132 133 135 134 131 133 138 144 148 151 153 154 152 147 139 134 130 128 128 128 130 134 136 135 137 138 139 140 140 140 144 146 140 134 134 135 136 136 136 132 125 123 122 114 105 97 52 34 52 68 48 52 93 97 64 46 48 61 64 42 32 52 69 57 49 49 44 36 34 31 28 32 39 37 30 27 33 41 35 26 22
113 120 123 129 138 143 138 133 133 132 133 141 148 152 155 156 154 148 144 137 129 125 125 127 127 125 124 126 128 131 134 136 138 138 139 140 141 140 137 137 140 142 142 145 148 142 131 125 127 119 105 113 84 35 52 75 49 51 95 96 63 48 49 55 59 40 36 62 78 60 55 62 48 35 36 37 30 29 34 29 19 21 35 44 33 25 25
115 115 116 120 127 130 130 132 134 136 141 150 155 157 159 159 151 143 138 130 125 124 125 126 125 124 125 129 135 141 144 143 140 137 137 140 141 141 142 146 149 149 149 149 149 145 139 133 131 122 101 104 96 48 46 64 40 40 79 79 53 45 44 39 25 4 2 20 65 64 62 63 48 38 42 41 31 28 29 19 11 17 34 35 23 23 26
122 120 118 118 123 128 134 139 144 148 153 157 158 159 159 154 142 133 130 128 128 127 126 125 125 127 133 140 149 157 156 144 137 137 138 140 144 149 153 155 156 154 148 143 141 142 139 133 127 121 108 103 91 63 59 63 38 33 53 49 35 32 29 17 2 353 352 349 8 79 74 67 52 40 37 33 27 24 19 13 16 26 36 27 20 23 25
123 122 122 126 134 138 140 146 151 155 161 163 162 164 161 148 138 136 134 132 132 130 129 129 130 134 145 156 163 163 153 141 137 140 143 144 151 162 166 168 172 167 154 145 142 141 139 137 133 125 122 121 100 73 75 59 31 37 55 46 28 15 7 6 3 1 4 11 55 94 83 70 54 37 28 25 23 15 7 10 23 29 27 20 20 22 22
125 127 129 136 143 142 145 154 159 161 166 167 167 167 158 141 137 141 141 135 131 130 132 136 138 145 159 169 166 155 146 143 143 146 149 154 162 167 165 170 176 166 151 145 149 151 144 141 139 133 136 144 127 89 84 58 16 33 48 43 29 12 359 2 3 1 10 36 72 93 82 59 43 35 31 29 22 13 11 19 23 20 18 19 18 14 14
136 140 145 150 153 152 155 164 167 166 168 169 167 161 144 134 135 140 140 135 130 129 135 144 150 159 169 170 158 147 145 144 145 148 152 157 161 154 142 147 158 155 149 149 160 166 153 140 138 142 147 152 151 119 91 57 3 35 40 35 20 349 347 1 8 2 7 29 54 73 66 37 30 35 40 36 29 25 28 29 24 21 23 23 14 5 3
146 151 154 155 156 158 162 167 169 171 169 163 160 154 139 136 139 139 138 137 133 135 147 157 162 167 170 162 148 145 145 141 140 146 152 157 159 154 146 144 147 149 152 156 164 172 164 148 145 156 157 155 181 191 97 63 58 43 29 19 327 320 339 3 14 7 8 16 21 20 13 7 22 38 40 39 42 41 34 25 23 24 20 12 9 5 1
153 155 158 159 161 164 169 171 170 169 164 156 151 141 134 139 142 139 140 146 150 153 161 170 172 164 158 151 145 146 148 148 148 151 156 161 167 169 165 160 159 163 167 173 183 188 179 167 166 175 172 164 183 207 193 74 53 34 297 253 300 328 347 8 14 8 9 10 6 1 354 352 14 54 54 59 65 42 23 13 20 24 10 355 1 10 10
164 164 161 164 166 166 168 169 166 160 151 145 144 138 136 143 148 145 148 160 171 167 165 169 166 149 142 145 148 149 150 152 154 156 160 166 172 178 180 186 204 207 195 193 199 196 185 178 178 185 189 186 181 190 197 158 46 35 53 189 338 342 348 6 14 10 7 0 354 359 7 11 23 102 67 49 57 36 23 19 21 22 13 357 357 14 24
176 174 163 162 164 159 156 159 162 156 143 141 148 147 143 148 153 152 154 168 183 175 162 162 158 147 144 149 153 153 153 156 159 163 168 172 176 181 188 203 227 235 224 214 206 196 187 184 179 170 179 188 188 190 195 188 34 14 351 183 343 350 356 19 26 13 2 351 343 354 18 32 45 46 21 25 39 36 29 29 25 23 19 1 353 15 33
172 167 159 162 166 160 155 158 160 151 137 134 141 145 147 154 159 157 160 174 186 176 162 161 160 154 150 151 153 154 157 161 164 168 172 176 182 189 199 212 221 234 254 245 219 201 191 187 183 172 174 184 190 196 195 185 35 18 128 171 358 357 11 36 33 6 351 351 360 17 40 50 47 35 31 36 38 28 26 31 33 30 20 5 355 10 25
155 152 153 156 155 150 148 149 150 148 144 140 141 145 153 163 169 165 169 180 182 167 158 158 156 152 151 150 151 156 161 164 168 172 176 181 188 197 208 216 220 239 264 237 204 193 189 186 184 186 184 184 191 196 189 174 79 98 170 187 345 7 30 41 26 353 345 6 25 39 54 54 40 34 40 42 34 28 33 37 35 28 20 17 23 27 9
150 150 154 152 143 142 144 145 150 158 161 156 151 153 162 174 180 177 176 178 170 159 157 156 151 148 151 151 153 161 167 169 173 177 178 182 191 204 218 224 225 237 235 194 180 180 183 183 184 185 181 183 198 202 191 174 130 172 203 253 291 145 92 37 322 301 326 28 36 40 55 57 45 40 40 34 29 32 36 34 29 23 20 29 39 28 12
148 149 153 151 146 150 154 156 162 170 169 161 160 165 172 181 187 186 176 167 158 155 158 158 152 152 159 164 166 170 173 176 180 182 181 185 192 203 218 224 224 227 214 186 178 180 185 186 189 194 190 193 206 202 190 177 160 202 226 254 231 159 138 333 293 292 306 40 45 44 64 65 53 47 45 38 36 37 34 31 31 23 15 21 34 30 22
149 151 156 156 154 161 166 165 168 174 170 164 168 175 177 179 185 191 186 171 160 155 158 162 164 166 171 175 177 177 178 182 185 186 188 194 198 203 214 220 220 223 220 201 188 187 190 189 187 195 200 198 192 188 188 187 194 212 223 232 221 211 219 232 294 309 316 74 60 60 86 66 39 47 62 42 27 27 31 37 36 19 8 16 37 38 29
157 159 163 163 165 170 171 167 171 178 174 168 174 181 176 172 180 192 196 179 165 158 159 166 172 174 174 175 177 181 185 189 190 192 199 206 208 211 218 221 217 223 231 218 200 191 192 192 191 200 207 198 184 183 190 195 193 210 225 239 260 264 238 204 210 288 286 16 14 325 246 314 2 40 121 338 352 14 36 46 36 22 21 38 49 40 27
163 164 168 170 170 171 169 168 175 185 180 171 176 182 176 171 180 191 191 176 167 165 166 169 172 173 175 178 182 185 190 193 194 195 199 208 215 219 223 225 228 237 237 221 202 191 190 195 201 207 208 202 194 193 199 200 200 226 238 239 255 272 250 219 231 277 277 280 295 285 264 251 248 227 230 252 282 343 46 61 44 40 51 61 44 29 22
165 168 173 172 169 171 174 176 179 182 177 172 174 179 179 179 185 190 184 174 171 174 178 181 182 183 184 186 190 195 199 200 200 198 196 199 211 220 221 222 226 226 213 199 193 191 194 202 207 208 208 209 206 203 202 205 216 243 239 229 235 263 267 251 244 263 275 285 295 294 280 261 267 297 297 276 265 270 101 106 78 58 62 50 16 16 22
168 171 175 174 171 175 182 183 178 176 175 174 175 180 184 188 193 192 181 175 176 182 188 193 196 195 193 192 195 201 203 202 203 206 205 203 207 213 215 214 213 207 196 192 193 193 194 200 205 208 212 214 210 205 204 210 224 240 236 228 234 258 264 251 242 253 267 274 339 41 27 2 344 345 341 320 290 262 201 173 150 9 25 19 13 20 27
170 173 176 176 175 177 181 181 180 181 182 181 182 186 189 194 200 201 191 184 184 188 192 195 198 201 205 207 209 212 214 211 208 210 212 213 216 217 214 210 207 203 198 195 192 189 192 200 206 209 210 210 208 208 211 215 221 231 232 229 240 264 269 255 238 231 203 121 74 28 5 356 349 344 339 329 300 236 212 213 235 261 241 270 337 7 23
172 177 180 178 176 177 177 178 181 187 188 185 184 187 190 192 197 201 202 198 193 190 191 195 199 203 209 212 210 211 218 224 225 219 216 215 216 216 212 207 205 201 196 190 188 191 197 203 206 204 202 203 206 208 210 210 216 227 230 231 247 266 268 232 187 161 116 33 360 350 350 355 351 343 336 332 318 273 249 255 262 255 247 254 285 349 22
175 179 180 178 177 178 177 176 180 188 190 187 187 188 187 187 190 197 203 207 203 196 195 198 199 198 199 203 207 210 213 218 224 232 228 216 212 212 209 204 201 197 192 190 191 195 199 203 205 203 200 201 203 204 202 205 215 226 229 234 247 258 243 203 187 222 319 329 332 335 341 343 344 346 345 339 330 315 303 298 288 273 263 256 248 281 300
176 179 181 181 181 180 180 180 183 186 189 193 198 197 190 183 183 190 201 206 208 207 208 211 209 204 200 203 211 214 211 208 213 226 228 215 209 210 207 199 194 192 191 193 195 195 196 199 203 201 199 201 205 206 205 208 217 225 229 236 248 250 231 216 234 290 306 304 296 279 284 304 311 319 336 344 342 340 340 337 322 297 274 258 257 284 296
178 180 183 184 184 185 187 189 190 189 190 195 202 204 198 192 190 195 201 203 201 201 206 214 216 209 205 206 209 211 208 206 212 220 220 208 200 200 198 191 188 188 190 192 194 195 198 202 205 206 208 211 213 212 213 217 223 226 228 235 246 248 238 240 274 294 285 260 239 243 268 286 289 291 300 312 319 324 329 327 310 279 238 201 196 204 215
181 183 184 183 185 189 193 196 198 198 197 198 200 202 201 197 195 198 203 204 198 196 202 210 210 202 199 200 201 204 207 209 211 212 206 190 185 189 191 189 187 187 188 189 192 196 202 206 210 215 218 219 220 222 225 227 228 228 230 236 247 252 246 244 256 257 241 232 240 258 274 288 294 295 294 294 299 313 331 343 322 182 155 149 195 278 280